Back to catalog

FENGYUN 1C DEB

AliveSSO
NORAD 30669·DEBRIS·🇨🇳 China

Launched May 10, 1999 from Taiyuan Satellite Launch Center

Loading…

Next Passes (next 24 hours)

TLE

FreshSource: Space-Track

Epoch: Sep 14, 2026, 07:03 UTC

1 30669U 99025AQB 26257.29405174  .00001077  00000-0  66526-3 0  9996
2 30669  98.6410 185.2853 0118234 121.5032  39.0018 14.03889579993184

Track FENGYUN 1C DEB in real time with AllMySat

Download on the App Store